Tracking 30970 objects as of 3-Jul-2025
HD Live streaming from Space Station
objects crossing your sky now

ONEWEB-0592

Track ONEWEB-0592 now!
10-day predictions
ONEWEB-0592 is classified as:


NORAD ID: 54658
Int'l Code: 2022-166S
Perigee: 1,183.6 km
Apogee: 1,186.2 km
Inclination: 87.9 °
Period: 108.9 minutes
Semi major axis: 7555 km
RCS: Unknown
Launch date: December 8, 2022
Source: United Kingdom (UK)
Launch site: AIR FORCE EASTERN TEST RANGE (AFETR)
Your satellite tracking list
Your tracking list is empty




NASA's NSSDC Master Catalog

Two Line Element Set (TLE):
1 54658U 22166S   25183.82142797 -.00000004  00000-0 -42214-4 0  9997
2 54658  87.9269 313.6297 0001726  99.1666 260.9663 13.21827758125289
Source of the keplerian elements: AFSPC